Maniitsoq

KL  EN  DA
ASIAQ
Weather Now GREENLAND SURVEY
Updated [WGT/WGST] Temperature [°C] Wind [m/s] Air pressure [hPa] Relative humidity [%] Precipitation [mm]
Present Wind chill Speed Max
25.02 07:00n/an/a3,1 ⇓3,61012n/an/a
25.02 06:00-14,4-19,72,3 ⇓3,91012710,0
25.02 05:00-14,2-21,13,5 ⇘4,41012770,0
25.02 04:00-14,3-22,64,8 ⇘5,71012770,0
25.02 03:00-14,0-23,66,6 ⇘8,61012820,0
25.02 02:00-13,9-24,37,9 ⇒9,61011810,0
25.02 01:00-13,5-23,47,3 ⇒9,61011850,0
25.02 00:00-13,3-23,07,1 ⇒9,01011830,0
24.02 23:00-13,0-22,16,3 ⇒8,11011840,0
24.02 22:00-13,1-21,85,6 ⇘7,51010770,0
24.02 21:00-13,1-22,66,7 ⇒8,81010750,0
24.02 20:00-12,8-22,77,7 ⇒9,11009780,0
24.02 19:00-12,6-22,78,0 ⇒10,01008830,0
24.02 18:00-12,5-23,810,3 ⇒12,51007900,2
24.02 17:00-12,3-20,35,0 ⇘6,61006730,0
24.02 16:00-12,1-20,96,1 ⇘8,61006720,0
24.02 15:00-11,9-21,37,2 ⇘10,01004780,0
24.02 14:00-11,6-21,58,1 ⇘10,41003800,0
24.02 13:00-11,2-21,59,3 ⇘12,61002810,0
24.02 12:00-11,1-20,06,6 ⇘10,41001760,0
24.02 11:00-10,4-18,96,4 ⇘8,71000610,0
24.02 10:00-10,7-19,97,5 ⇘9,8999650,0
24.02 09:00-10,5-18,65,7 ⇘7,9999600,0
24.02 08:00-10,8-19,56,5 ⇘8,8998630,0
24.02 07:00-10,8-18,75,3 ⇘6,7997630,0
Position: (65.416667,-52.933333)

[Back]